When you browse on this site, cookies collect data to enhance your experience and personalize the content and advertising you see.
Visit our Privacy Policy to learn more. By continuing to use the site, you agree to this use of cookies and data.
  • In Hungary
  • List of Countries
  • For 7 days
  • Water Temperature
  • Satellite Maps
  • Weather Map
  • News
  • Weather Widgets
  • user-avatar
    Login

    Hourly Weather Dyurtyuli

    Today, 24 January, Thursday

    Time Temperature Precipitation Wind Pressure Humidity
    00:00 -25°C° 0 mm 2 mps 758 mmHg 96%
    01:00 -25°C° 0 mm 2 mps 758 mmHg 96%
    02:00 -25°C° 0 mm 2 mps 758 mmHg 96%
    03:00 -26°C° 0 mm 2 mps 759 mmHg 96%
    04:00 -25°C° 0 mm 2 mps 759 mmHg 96%
    05:00 -25°C° 0 mm 2 mps 759 mmHg 96%
    06:00 -25°C° 0 mm 2 mps 759 mmHg 97%
    07:00 -26°C° 0 mm 2 mps 760 mmHg 97%
    08:00 -26°C° 0 mm 2 mps 760 mmHg 97%
    09:00 -26°C° 0 mm 2 mps 760 mmHg 96%
    10:00 -26°C° 0 mm 2 mps 760 mmHg 96%
    11:00 -25°C° 0 mm 2 mps 760 mmHg 96%
    12:00 -24°C° 0 mm 2 mps 760 mmHg 95%
    13:00 -23°C° 0 mm 3 mps 761 mmHg 94%
    14:00 -24°C° 0 mm 3 mps 760 mmHg 94%
    15:00 -24°C° 0 mm 3 mps 760 mmHg 94%
    16:00 -24°C° 0 mm 3 mps 760 mmHg 95%
    17:00 -25°C° 0 mm 4 mps 760 mmHg 93%
    18:00 -24°C° 0 mm 4 mps 759 mmHg 92%
    19:00 -24°C° 0 mm 4 mps 759 mmHg 91%
    20:00 -24°C° 0 mm 5 mps 758 mmHg 91%
    21:00 -24°C° 0 mm 5 mps 757 mmHg 91%
    22:00 -22°C° 0 mm 5 mps 757 mmHg 91%
    23:00 -22°C° 0.3 mm 6 mps 756 mmHg 91%

    Tomorrow, 25 January, Friday

    Time Temperature Precipitation Wind Pressure Humidity
    00:00 -21°C° 0.3 mm 7 mps 755 mmHg 92%
    01:00 -20°C° 0.3 mm 7 mps 754 mmHg 93%
    02:00 -19°C° 0.4 mm 7 mps 753 mmHg 92%
    03:00 -18°C° 0.4 mm 7 mps 752 mmHg 91%
    04:00 -17°C° 0.4 mm 7 mps 751 mmHg 91%
    05:00 -16°C° 0.3 mm 6 mps 750 mmHg 91%
    06:00 -15°C° 0.3 mm 6 mps 749 mmHg 91%
    07:00 -15°C° 0.3 mm 6 mps 748 mmHg 92%
    08:00 -14°C° 0.2 mm 5 mps 748 mmHg 92%
    09:00 -14°C° 0.2 mm 5 mps 747 mmHg 92%
    10:00 -14°C° 0.2 mm 5 mps 747 mmHg 92%
    11:00 -13°C° 0.2 mm 5 mps 747 mmHg 91%
    12:00 -13°C° 0.2 mm 5 mps 747 mmHg 91%
    13:00 -13°C° 0.2 mm 5 mps 747 mmHg 90%
    14:00 -14°C° 0.1 mm 5 mps 747 mmHg 89%
    15:00 -15°C° 0.1 mm 5 mps 748 mmHg 89%
    16:00 -17°C° 0.1 mm 6 mps 748 mmHg 89%
    17:00 -18°C° 0 mm 6 mps 749 mmHg 89%
    18:00 -21°C° 0 mm 6 mps 750 mmHg 90%
    19:00 -22°C° 0 mm 6 mps 751 mmHg 91%
    20:00 -22°C° 0 mm 5 mps 752 mmHg 93%
    21:00 -24°C° 0 mm 5 mps 753 mmHg 94%
    22:00 -25°C° 0 mm 5 mps 754 mmHg 95%
    23:00 -26°C° 0 mm 5 mps 754 mmHg 95%

    Day after tomorrow, 26 January, Saturday

    Time Temperature Precipitation Wind Pressure Humidity
    00:00 -26°C° 0 mm 4 mps 755 mmHg 96%
    01:00 -27°C° 0 mm 4 mps 756 mmHg 96%
    02:00 -27°C° 0 mm 4 mps 756 mmHg 97%
    03:00 -29°C° 0 mm 4 mps 757 mmHg 97%
    04:00 -30°C° 0 mm 4 mps 757 mmHg 97%
    05:00 -29°C° 0 mm 3 mps 758 mmHg 98%
    06:00 -29°C° 0 mm 3 mps 759 mmHg 98%
    07:00 -30°C° 0 mm 3 mps 759 mmHg 98%
    08:00 -30°C° 0 mm 3 mps 760 mmHg 98%
    09:00 -29°C° 0 mm 3 mps 760 mmHg 98%
    10:00 -27°C° 0 mm 2 mps 761 mmHg 98%
    11:00 -26°C° 0 mm 2 mps 761 mmHg 97%
    12:00 -24°C° 0 mm 2 mps 761 mmHg 96%
    13:00 -20°C° 0 mm 1 mps 761 mmHg 96%
    14:00 -21°C° 0 mm 1 mps 762 mmHg 95%
    15:00 -21°C° 0 mm 1 mps 762 mmHg 95%
    16:00 -21°C° 0 mm 1 mps 762 mmHg 95%
    17:00 -22°C° 0 mm 1 mps 762 mmHg 95%
    18:00 -22°C° 0 mm 1 mps 763 mmHg 94%
    19:00 -23°C° 0 mm 1 mps 763 mmHg 94%
    20:00 -23°C° 0 mm 1 mps 763 mmHg 93%
    21:00 -23°C° 0 mm 1 mps 763 mmHg 92%
    22:00 -26°C° 0 mm 2 mps 763 mmHg 92%
    23:00 -26°C° 0 mm 2 mps 763 mmHg 91%

    27 January, Sunday

    Time Temperature Precipitation Wind Pressure Humidity
    00:00 -26°C° 0 mm 2 mps 763 mmHg 91%
    01:00 -27°C° 0 mm 2 mps 763 mmHg 91%
    02:00 -26°C° 0 mm 2 mps 763 mmHg 91%
    03:00 -26°C° 0 mm 2 mps 763 mmHg 91%
    04:00 -27°C° 0 mm 3 mps 762 mmHg 90%
    05:00 -27°C° 0 mm 3 mps 762 mmHg 89%
    06:00 -26°C° 0 mm 3 mps 762 mmHg 88%
    07:00 -26°C° 0 mm 3 mps 762 mmHg 86%
    08:00 -25°C° 0 mm 3 mps 761 mmHg 85%
    09:00 -24°C° 0 mm 3 mps 761 mmHg 83%
    10:00 -24°C° 0 mm 4 mps 761 mmHg 82%
    11:00 -23°C° 0 mm 4 mps 760 mmHg 80%
    12:00 -22°C° 0 mm 4 mps 760 mmHg 78%
    13:00 -19°C° 0 mm 4 mps 759 mmHg 77%
    14:00 -19°C° 0 mm 4 mps 759 mmHg 78%
    15:00 -19°C° 0 mm 4 mps 758 mmHg 79%
    16:00 -20°C° 0 mm 5 mps 758 mmHg 80%
    17:00 -19°C° 0 mm 5 mps 758 mmHg 79%
    18:00 -17°C° 0 mm 5 mps 757 mmHg 79%
    19:00 -15°C° 0 mm 5 mps 757 mmHg 79%
    20:00 -16°C° 0 mm 6 mps 757 mmHg 78%
    21:00 -16°C° 0 mm 6 mps 757 mmHg 76%
    22:00 -17°C° 0 mm 6 mps 756 mmHg 75%
    23:00 -17°C° 0 mm 6 mps 756 mmHg 75%

    28 January, Monday

    Time Temperature Precipitation Wind Pressure Humidity
    00:00 -18°C° 0 mm 6 mps 756 mmHg 75%
    01:00 -20°C° 0 mm 6 mps 756 mmHg 75%
    02:00 -20°C° 0 mm 6 mps 756 mmHg 75%
    03:00 -20°C° 0 mm 6 mps 755 mmHg 76%
    04:00 -20°C° 0 mm 6 mps 755 mmHg 76%
    05:00 -19°C° 0 mm 5 mps 755 mmHg 76%
    06:00 -19°C° 0 mm 5 mps 754 mmHg 76%
    07:00 -20°C° 0 mm 5 mps 754 mmHg 76%
    08:00 -19°C° 0 mm 5 mps 753 mmHg 76%
    09:00 -19°C° 0 mm 5 mps 753 mmHg 75%
    10:00 -19°C° 0 mm 5 mps 753 mmHg 74%
    11:00 -17°C° 0 mm 5 mps 752 mmHg 74%
    12:00 -15°C° 0 mm 5 mps 752 mmHg 73%
    13:00 -14°C° 0 mm 5 mps 751 mmHg 73%
    14:00 -14°C° 0 mm 4 mps 751 mmHg 75%
    15:00 -14°C° 0 mm 4 mps 750 mmHg 77%
    16:00 -13°C° 0 mm 3 mps 750 mmHg 79%
    17:00 -13°C° 0 mm 3 mps 749 mmHg 80%
    18:00 -14°C° 0 mm 4 mps 749 mmHg 81%
    19:00 -14°C° 0 mm 4 mps 748 mmHg 81%
    20:00 -12°C° 0 mm 4 mps 748 mmHg 83%
    21:00 -12°C° 0 mm 4 mps 748 mmHg 84%
    22:00 -11°C° 0 mm 4 mps 748 mmHg 86%
    23:00 -11°C° 0.2 mm 4 mps 748 mmHg 88%

    29 January, Tuesday

    Time Temperature Precipitation Wind Pressure Humidity
    00:00 -12°C° 0.2 mm 5 mps 748 mmHg 90%
    01:00 -11°C° 0.2 mm 5 mps 747 mmHg 92%
    02:00 -12°C° 0.3 mm 5 mps 747 mmHg 93%
    03:00 -11°C° 0.3 mm 4 mps 747 mmHg 93%
    04:00 -11°C° 0.3 mm 4 mps 747 mmHg 94%
    05:00 -11°C° 0.3 mm 4 mps 746 mmHg 94%
    06:00 -10°C° 0.3 mm 3 mps 746 mmHg 95%
    07:00 -12°C° 0.3 mm 3 mps 746 mmHg 95%
    08:00 -12°C° 0 mm 3 mps 746 mmHg 95%
    09:00 -12°C° 0 mm 3 mps 746 mmHg 95%
    10:00 -12°C° 0 mm 2 mps 746 mmHg 96%
    11:00 -10°C° 0 mm 2 mps 747 mmHg 95%
    12:00 -9°C° 0 mm 2 mps 747 mmHg 94%
    13:00 -9°C° 0 mm 2 mps 747 mmHg 93%
    14:00 -9°C° 0 mm 2 mps 747 mmHg 93%
    15:00 -10°C° 0 mm 2 mps 747 mmHg 94%
    16:00 -9°C° 0 mm 1 mps 748 mmHg 94%
    17:00 -10°C° 0 mm 1 mps 748 mmHg 95%
    18:00 -11°C° 0 mm 1 mps 748 mmHg 95%
    19:00 -11°C° 0 mm 1 mps 749 mmHg 95%
    20:00 -12°C° 0 mm 1 mps 749 mmHg 96%
    21:00 -12°C° 0 mm 0 mps 749 mmHg 96%
    22:00 -12°C° 0 mm 0 mps 750 mmHg 96%
    23:00 -12°C° 0 mm 0 mps 750 mmHg 96%
    Show more